STARLINK-35076, 65457

Orbit data source: Space-Track

STARLINK-35076, 65457 is a payload satellite owned by SpaceX/Seattle (US) in SSO that was launched on Wed, 03 Sep 2025 UTC via an FALCON 9 launch vehicle from the Air Force Western Test Range (AFWTR). Payload-class satellites include a variety of spacecraft equipped with specific instruments for various scientific and technological missions. These include communications satellites like Starlink; space stations such as the ISS; scientific satellites like the Hubble; Earth observation satellites from companies like Planet Labs, Umbra, and HawkEye 360; GPS; miniature CubeSats for education and research; and military/defense satellites.

Loading next visibility...
Identifier
65457, 2025-194Z
Orbit
SSO
Country
Flag of USUS
Related business
Manufacturer
SpaceX/Seattle
Mission
Operational Commercial Communications
Bus & Motor
STARLINK V2MO, Unknown motor
Mass
575 kg wet, ~530 kg dry
Launch date (UTC)
2025-09-03 (10 months ago)
Launch vehicle
FALCON 9
Launch site
Air Force Western Test Range (AFWTR)
Object type
Payload
Rocket body
Debris
Shape & HBR
Box + 2 Pan, 17.7 m
Radar Cross Section
36.964 m², Large (>1 m²)

Expand to show TLE details & history
Last TLE update: 1 day ago

TLE from 1 day ago
0 STARLINK-35076
1 65457U 25194Z   26170.56082583 -.00000946  00000-0 -61613-4 0  9993
2 65457  97.3423  23.6928 0001955 102.7783 257.3663 15.05640823 44975
Epoch: 2026-06-19T13:27Z
TLE epoch observation values (Epoch: 2026-06-19T13:27:35.351Z)
Latitude
-0.00004°
Longitude
-85.99253°
Altitude
552.908 km
Speed
7.585 km/s
True Right ascension
01h 34m 46s
True Declination
0° 00' 00"
Sunlit
Object was in daylight at epoch
Visualization orbit readout
Latitude
Unknown
Longitude
Unknown
Altitude
Unknown
Speed
Unknown
Apparent Right ascension
Unknown
Apparent Declination
Unknown
Sunlit
N/A
Visualization observer readout
Local Sidereal Time
07:16:35
Azimuth
Unknown
Elevation
Unknown
Doppler factor
Unknown
Orbital elements
Apogee altitude
547.875 km
Perigee altitude
545.168 km
Semi-major axis
6,924.659 km
Eccentricity
0.0002
Inclination
97.3423°
RAAN
23.6928°
Arg. of periapsis
102.7783°
True anomaly
257.34444°
Mean anomaly
257.3663°
Eccentric anomaly
257.35537°
Mean motion
3.76657 °/min
Orbital period
95.58 mins
BSTAR
-0.000061613
Loading maneuver chart data...
Computing Atmospheric mass density...
Loading historical data...
Loading historical data...
Loading historical data...
Loading historical data...
Loading historical data...
Loading historical data...
Loading historical data...

Documentation

Showing up to 5 results
|